| time (UTC) | temp C | wind direction | speed KPH | gust KPH | rain 1hr cm | rain 24hr cm | rain mn cm | humidity % | barometer mb |
| 20260506184614 | 12 | 293 | 3.2 | 4.8 | 0.00 | 4.24 | 0.00 | 53 | 1012.8 |
| 20260506183613 | 12 | 37 | 6.4 | 11.3 | 0.00 | 4.27 | 0.00 | 52 | 1013.0 |
| 20260506183113 | 13 | 323 | 3.2 | 11.3 | 0.00 | 4.27 | 0.00 | 49 | 1012.8 |
| 20260506182614 | 12 | 190 | 3.2 | 8.0 | 0.00 | 4.27 | 0.00 | 52 | 1012.8 |
| 20260506182113 | 12 | 7 | 6.4 | 12.9 | 0.00 | 4.27 | 0.00 | 54 | 1012.8 |
| 20260506180613 | 12 | 36 | 6.4 | 11.3 | 0.00 | 4.27 | 0.00 | 53 | 1012.4 |
| 20260506180113 | 13 | 91 | 1.6 | 4.8 | 0.00 | 4.27 | 0.00 | 53 | 1012.7 |
| 20260506175613 | 13 | 65 | 6.4 | 9.7 | 0.00 | 4.27 | 0.00 | 48 | 1012.8 |
| 20260506175113 | 13 | 25 | 6.4 | 9.7 | 0.00 | 4.27 | 0.00 | 50 | 1012.9 |
| 20260506174613 | 13 | 272 | 1.6 | 11.3 | 0.00 | 4.27 | 0.00 | 53 | 1012.7 |
| 20260506174113 | 12 | 352 | 4.8 | 12.9 | 0.00 | 4.27 | 0.00 | 54 | 1013.0 |
| 20260506173614 | 12 | 23 | 8.0 | 12.9 | 0.00 | 4.27 | 0.00 | 55 | 1012.8 |
| 20260506173113 | 12 | 346 | 8.0 | 12.9 | 0.00 | 4.27 | 0.00 | 56 | 1012.9 |
| 20260506172113 | 12 | 88 | 6.4 | 9.7 | 0.00 | 4.27 | 0.00 | 55 | 1012.4 |
| 20260506171613 | 12 | 45 | 3.2 | 9.7 | 0.00 | 4.27 | 0.00 | 58 | 1012.8 |
| 20260506171113 | 12 | 207 | 3.2 | 9.7 | 0.00 | 4.27 | 0.00 | 55 | 1012.7 |
| 20260506170613 | 12 | 304 | 4.8 | 20.9 | 0.00 | 4.27 | 0.00 | 55 | 1012.6 |
| 20260506170113 | 12 | 49 | 8.0 | 20.9 | 0.00 | 4.27 | 0.00 | 57 | 1012.8 |
| 20260506165613 | 12 | 317 | 8.0 | 14.5 | 0.00 | 4.27 | 0.00 | 56 | 1012.6 |
| 20260506165113 | 12 | 291 | 3.2 | 11.3 | 0.00 | 4.27 | 0.00 | 58 | 1012.7 |
| 20260506164613 | 12 | 253 | 4.8 | 12.9 | 0.00 | 4.27 | 0.00 | 58 | 1012.7 |
| 20260506164113 | 12 | 48 | 8.0 | 12.9 | 0.00 | 4.27 | 0.00 | 57 | 1012.8 |
| 20260506163613 | 11 | 38 | 9.7 | 12.9 | 0.00 | 4.27 | 0.00 | 60 | 1012.9 |
| 20260506163114 | 11 | 352 | 8.0 | 12.9 | 0.00 | 4.27 | 0.00 | 57 | 1012.9 |
| 20260506162613 | 12 | 18 | 4.8 | 12.9 | 0.00 | 4.27 | 0.00 | 62 | 1012.9 |
| 20260506162114 | 11 | 177 | 1.6 | 14.5 | 0.00 | 4.27 | 0.00 | 59 | 1012.8 |
| 20260506161613 | 11 | 315 | 4.8 | 14.5 | 0.00 | 4.27 | 0.00 | 61 | 1012.8 |
| 20260506161113 | 11 | 33 | 9.7 | 19.3 | 0.00 | 4.27 | 0.00 | 62 | 1012.8 |
| 20260506160613 | 11 | 43 | 4.8 | 9.7 | 0.00 | 4.27 | 0.00 | 62 | 1012.6 |
| 20260506155613 | 11 | 242 | 1.6 | 8.0 | 0.00 | 4.27 | 0.00 | 65 | 1012.4 |
| 20260506155113 | 11 | 61 | 4.8 | 9.7 | 0.00 | 4.27 | 0.00 | 65 | 1012.3 |
| 20260506154613 | 11 | 58 | 4.8 | 4.8 | 0.00 | 4.27 | 0.00 | 65 | 1012.3 |
| 20260506154113 | 11 | 204 | 3.2 | 4.8 | 0.00 | 4.27 | 0.00 | 67 | 1012.3 |
| 20260506153613 | 11 | 205 | 3.2 | 8.0 | 0.00 | 4.27 | 0.00 | 68 | 1012.3 |
| 20260506153113 | 10 | 165 | 3.2 | 9.7 | 0.00 | 4.27 | 0.00 | 70 | 1012.5 |
| 20260506152613 | 11 | 157 | 4.8 | 9.7 | 0.00 | 4.27 | 0.00 | 68 | 1012.4 |
| 20260506152113 | 11 | 345 | 4.8 | 9.7 | 0.00 | 4.27 | 0.00 | 70 | 1012.4 |
| 20260506151613 | 10 | 249 | 4.8 | 8.0 | 0.00 | 4.27 | 0.00 | 71 | 1012.4 |
| 20260506151113 | 10 | 222 | 4.8 | 8.0 | 0.00 | 4.27 | 0.00 | 71 | 1012.3 |
| 20260506150613 | 10 | 47 | 4.8 | 9.7 | 0.00 | 4.27 | 0.00 | 71 | 1012.2 |
| 20260506145613 | 10 | 269 | 3.2 | 9.7 | 0.00 | 4.27 | 0.00 | 73 | 1012.1 |
| 20260506145113 | 9 | 328 | 3.2 | 9.7 | 0.00 | 4.27 | 0.00 | 74 | 1012.0 |
| 20260506144613 | 9 | 31 | 9.7 | 12.9 | 0.00 | 4.27 | 0.00 | 73 | 1011.9 |
| 20260506143613 | 9 | 10 | 8.0 | 11.3 | 0.00 | 4.27 | 0.00 | 74 | 1011.7 |
| 20260506142613 | 8 | 52 | 4.8 | 8.0 | 0.00 | 4.27 | 0.00 | 76 | 1011.8 |
| 20260506142113 | 8 | 276 | 3.2 | 8.0 | 0.00 | 4.27 | 0.00 | 76 | 1011.6 |
| 20260506141613 | 8 | 353 | 4.8 | 9.7 | 0.00 | 4.27 | 0.00 | 76 | 1011.7 |
| 20260506141113 | 8 | 255 | 3.2 | 8.0 | 0.00 | 4.27 | 0.00 | 77 | 1011.7 |
| 20260506140613 | 8 | 217 | 1.6 | 4.8 | 0.00 | 4.27 | 0.00 | 77 | 1011.7 |
| 20260506140113 | 8 | 280 | 3.2 | 4.8 | 0.00 | 4.27 | 0.00 | 77 | 1011.8 |
| 20260506135113 | 6 | 32 | 4.8 | 11.3 | 0.00 | 4.27 | 0.00 | 82 | 1011.6 |
| 20260506134613 | 6 | 32 | 4.8 | 11.3 | 0.00 | 4.27 | 0.00 | 82 | 1011.6 |
| 20260506134113 | 6 | 32 | 4.8 | 11.3 | 0.00 | 4.27 | 0.00 | 82 | 1011.6 |
| 20260506133613 | 6 | 32 | 4.8 | 11.3 | 0.00 | 4.27 | 0.00 | 82 | 1011.6 |
| 20260506133113 | 6 | 32 | 4.8 | 11.3 | 0.00 | 4.27 | 0.00 | 82 | 1011.6 |
| 20260506132613 | 6 | 32 | 4.8 | 11.3 | 0.00 | 4.27 | 0.00 | 82 | 1011.5 |
| 20260506132113 | 6 | 32 | 4.8 | 11.3 | 0.00 | 4.27 | 0.00 | 82 | 1011.2 |
| 20260506131613 | 6 | 32 | 4.8 | 11.3 | 0.00 | 4.27 | 0.00 | 82 | 1011.3 |
| 20260506131113 | 6 | 32 | 4.8 | 11.3 | 0.00 | 4.27 | 0.00 | 82 | 1011.2 |
| 20260506130613 | 6 | 32 | 4.8 | 11.3 | 0.00 | 4.27 | 0.00 | 82 | 1011.1 |
| 20260506130113 | 6 | 48 | 3.2 | 3.2 | 0.00 | 4.27 | 0.00 | 88 | 1011.3 |
| 20260506125613 | 6 | 48 | 3.2 | 3.2 | 0.00 | 4.27 | 0.00 | 88 | 1011.2 |
| 20260506124613 | 6 | 48 | 3.2 | 3.2 | 0.00 | 4.27 | 0.00 | 88 | 1010.8 |
| 20260506124113 | 6 | 48 | 3.2 | 8.0 | 0.00 | 4.27 | 0.00 | 88 | 1010.7 |
| 20260506123613 | 6 | 347 | 4.8 | 8.0 | 0.00 | 4.27 | 0.00 | 90 | 1010.8 |
| 20260506123113 | 6 | 347 | 4.8 | 8.0 | 0.00 | 4.27 | 0.00 | 90 | 1010.5 |
| 20260506122612 | 6 | 347 | 4.8 | 8.0 | 0.00 | 4.27 | 0.00 | 90 | 1010.5 |
| 20260506122113 | 6 | 347 | 4.8 | 8.0 | 0.00 | 4.27 | 0.00 | 90 | 1010.4 |
| 20260506121613 | 6 | 347 | 4.8 | 8.0 | 0.00 | 4.27 | 0.00 | 90 | 1010.4 |
| 20260506121113 | 6 | 13 | 3.2 | 8.0 | 0.00 | 4.27 | 0.00 | 91 | 1010.3 |
| 20260506120613 | 6 | 20 | 3.2 | 8.0 | 0.00 | 4.27 | 0.00 | 91 | 1010.3 |
| 20260506120113 | 6 | 20 | 3.2 | 8.0 | 0.00 | 4.27 | 0.00 | 91 | 1010.4 |
| 20260506115613 | 5 | 190 | 0.0 | 0.0 | 0.00 | 4.27 | 0.00 | 95 | 1010.3 |
| 20260506115113 | 5 | 190 | 0.0 | 0.0 | 0.00 | 4.27 | 0.00 | 95 | 1010.2 |
| 20260506114613 | 5 | 190 | 0.0 | 0.0 | 0.00 | 4.27 | 0.00 | 95 | 1010.2 |
| 20260506114113 | 5 | 190 | 0.0 | 0.0 | 0.00 | 4.27 | 0.00 | 95 | 1010.0 |
| 20260506113613 | 5 | 190 | 0.0 | 0.0 | 0.00 | 4.27 | 0.00 | 95 | 1010.2 |
| 20260506113112 | 5 | 190 | 0.0 | 0.0 | 0.00 | 4.27 | 0.00 | 95 | 1010.0 |
| 20260506112612 | 5 | 190 | 0.0 | 0.0 | 0.00 | 4.27 | 0.00 | 95 | 1010.3 |
| 20260506112113 | 5 | 175 | 1.6 | 1.6 | 0.00 | 4.27 | 0.00 | 95 | 1010.0 |
| 20260506111612 | 5 | 197 | 1.6 | 1.6 | 0.00 | 4.27 | 0.00 | 95 | 1010.2 |
| 20260506111112 | 5 | 197 | 1.6 | 1.6 | 0.00 | 4.27 | 0.00 | 95 | 1010.0 |
| 20260506110613 | 5 | 150 | 0.0 | 0.0 | 0.00 | 4.27 | 0.00 | 95 | 1010.0 |
| 20260506110113 | 5 | 201 | 0.0 | 0.0 | 0.00 | 4.27 | 0.00 | 95 | 1009.9 |
| 20260506105613 | 5 | 186 | 0.0 | 1.6 | 0.00 | 4.27 | 0.00 | 95 | 1009.4 |
| 20260506105113 | 5 | 163 | 1.6 | 8.0 | 0.00 | 4.27 | 0.00 | 95 | 1009.2 |
| 20260506104113 | 5 | 166 | 1.6 | 4.8 | 0.00 | 4.27 | 1.60 | 96 | 1009.3 |
| 20260506103613 | 5 | 0 | 3.2 | 8.0 | 0.00 | 4.29 | 1.60 | 96 | 1009.3 |
| 20260506103113 | 5 | 88 | 3.2 | 8.0 | 0.00 | 4.29 | 1.60 | 96 | 1009.6 |
| 20260506102113 | 5 | 241 | 4.8 | 11.3 | 0.00 | 4.29 | 1.60 | 96 | 1009.2 |
| 20260506101613 | 5 | 41 | 3.2 | 9.7 | 0.00 | 4.32 | 1.60 | 96 | 1009.2 |
| 20260506101114 | 5 | 6 | 1.6 | 9.7 | 0.00 | 4.34 | 1.60 | 97 | 1009.3 |
| 20260506100614 | 6 | 0 | 3.2 | 4.8 | 0.00 | 4.34 | 1.60 | 97 | 1008.9 |
| 20260506095614 | 6 | 0 | 3.2 | 4.8 | 0.03 | 4.34 | 1.60 | 97 | 1009.5 |
| 20260506095113 | 6 | 162 | 0.0 | 0.0 | 0.03 | 4.34 | 1.60 | 97 | 1009.2 |
| 20260506094113 | 6 | 162 | 0.0 | 0.0 | 0.03 | 4.34 | 1.60 | 97 | 1008.3 |
| 20260506093613 | 6 | 162 | 0.0 | 0.0 | 0.03 | 4.34 | 1.60 | 97 | 1008.2 |
| 20260506092613 | 6 | 162 | 0.0 | 0.0 | 0.05 | 4.34 | 1.60 | 97 | 1008.0 |
| 20260506092114 | 6 | 162 | 0.0 | 0.0 | 0.05 | 4.34 | 1.60 | 97 | 1008.2 |
| 20260506091613 | 6 | 162 | 0.0 | 0.0 | 0.05 | 4.34 | 1.60 | 97 | 1008.5 |
| 20260506091113 | 6 | 135 | 1.6 | 3.2 | 0.05 | 4.34 | 1.60 | 97 | 1008.8 |
| 20260506090613 | 6 | 44 | 1.6 | 3.2 | 0.05 | 4.34 | 1.60 | 97 | 1009.0 |
| 20260506090113 | 6 | 72 | 1.6 | 3.2 | 0.03 | 4.32 | 1.57 | 97 | 1009.2 |
| 20260506085614 | 6 | 28 | 1.6 | 4.8 | 0.05 | 4.32 | 1.57 | 97 | 1009.4 |
| 20260506085114 | 6 | 352 | 4.8 | 4.8 | 0.05 | 4.32 | 1.57 | 97 | 1009.2 |
| 20260506084614 | 6 | 47 | 1.6 | 4.8 | 0.08 | 4.32 | 1.57 | 97 | 1009.0 |
| 20260506084114 | 6 | 302 | 3.2 | 3.2 | 0.08 | 4.32 | 1.57 | 97 | 1009.2 |
| 20260506083614 | 6 | 9 | 0.0 | 3.2 | 0.10 | 4.32 | 1.57 | 97 | 1009.2 |
| 20260506082613 | 6 | 163 | 1.6 | 3.2 | 0.13 | 4.29 | 1.55 | 97 | 1009.1 |
| 20260506082113 | 6 | 132 | 1.6 | 4.8 | 0.15 | 4.29 | 1.55 | 97 | 1008.9 |
| 20260506081613 | 6 | 22 | 3.2 | 8.0 | 0.15 | 4.29 | 1.55 | 97 | 1009.2 |
| 20260506081113 | 6 | 149 | 1.6 | 3.2 | 0.15 | 4.29 | 1.55 | 97 | 1008.5 |
| 20260506080613 | 6 | 334 | 1.6 | 4.8 | 0.15 | 4.29 | 1.55 | 97 | 1008.7 |
| 20260506080113 | 6 | 35 | 3.2 | 8.0 | 0.15 | 4.29 | 1.55 | 97 | 1008.7 |
| 20260506072613 | 6 | 37 | 1.6 | 8.0 | 0.25 | 4.17 | 1.42 | 97 | 1009.1 |
| 20260506071113 | 6 | 183 | 0.0 | 4.8 | 0.36 | 4.14 | 1.40 | 97 | 1008.8 |
| 20260506070113 | 6 | 335 | 1.6 | 4.8 | 0.46 | 4.14 | 1.40 | 97 | 1008.9 |
| 20260506061614 | 6 | 173 | 0.0 | 16.1 | 0.48 | 3.84 | 1.09 | 97 | 1008.8 |
| 20260506061113 | 6 | 352 | 3.2 | 16.1 | 0.51 | 3.78 | 1.04 | 97 | 1008.8 |
| 20260506060613 | 6 | 163 | 3.2 | 8.0 | 0.56 | 3.73 | 0.99 | 97 | 1008.7 |
| 20260506060113 | 6 | 178 | 1.6 | 14.5 | 0.56 | 3.68 | 0.94 | 97 | 1008.8 |
| 20260506051115 | 7 | 41 | 1.6 | 4.8 | 0.51 | 3.28 | 0.53 | 97 | 1009.0 |
| 20260506050613 | 7 | 246 | 0.0 | 9.7 | 0.43 | 3.17 | 0.43 | 97 | 1008.9 |
| 20260506045114 | 7 | 189 | 0.0 | 3.2 | 0.28 | 3.00 | 0.25 | 97 | 1009.1 |
| 20260506044614 | 7 | 69 | 3.2 | 3.2 | 0.20 | 2.90 | 0.15 | 97 | 1009.0 |
| 20260506044113 | 7 | 15 | 3.2 | 11.3 | 0.23 | 2.90 | 0.15 | 97 | 1008.8 |
| 20260506043613 | 7 | 171 | 0.0 | 1.6 | 0.13 | 2.79 | 0.05 | 97 | 1008.6 |
| 20260506043115 | 7 | 80 | 4.8 | 9.7 | 0.15 | 2.79 | 0.05 | 97 | 1008.6 |
| 20260506042629 | 7 | 35 | 4.8 | 9.7 | 0.15 | 2.77 | 0.03 | 97 | 1008.8 |
| 20260506042113 | 7 | 50 | 8.0 | 12.9 | 0.15 | 2.77 | 0.03 | 97 | 1008.7 |
| 20260506041613 | 7 | 337 | 4.8 | 9.7 | 0.18 | 2.77 | 0.03 | 97 | 1008.7 |
| 20260506041113 | 7 | 154 | 1.6 | 11.3 | 0.20 | 2.77 | 0.03 | 97 | 1008.8 |
| 20260506035613 | 7 | 2 | 6.4 | 9.7 | 0.23 | 2.74 | 0.89 | 97 | 1009.0 |
| 20260506035113 | 7 | 180 | 1.6 | 14.5 | 0.23 | 2.72 | 0.86 | 97 | 1009.1 |
| 20260506034613 | 7 | 20 | 4.8 | 14.5 | 0.23 | 2.69 | 0.84 | 97 | 1009.1 |
| 20260506033613 | 7 | 223 | 3.2 | 9.7 | 0.25 | 2.67 | 0.81 | 97 | 1009.1 |
| 20260506033113 | 7 | 21 | 3.2 | 4.8 | 0.25 | 2.64 | 0.79 | 97 | 1009.4 |
| 20260506032613 | 7 | 225 | 1.6 | 8.0 | 0.28 | 2.62 | 0.76 | 97 | 1009.4 |
| 20260506032112 | 7 | 37 | 4.8 | 9.7 | 0.30 | 2.62 | 0.76 | 97 | 1009.7 |
| 20260506031113 | 7 | 47 | 3.2 | 14.5 | 0.36 | 2.57 | 0.71 | 97 | 1009.8 |
| 20260506030613 | 8 | 23 | 6.4 | 14.5 | 0.41 | 2.57 | 0.71 | 97 | 1009.9 |
| 20260506030113 | 8 | 342 | 9.7 | 14.5 | 0.43 | 2.54 | 0.69 | 97 | 1010.0 |
| 20260506025613 | 8 | 84 | 3.2 | 8.0 | 0.46 | 2.51 | 0.66 | 97 | 1009.9 |
| 20260506025113 | 8 | 355 | 4.8 | 9.7 | 0.48 | 2.49 | 0.64 | 97 | 1010.1 |
| 20260506024613 | 8 | 46 | 1.6 | 9.7 | 0.48 | 2.46 | 0.61 | 97 | 1010.0 |
| 20260506024113 | 8 | 302 | 3.2 | 11.3 | 0.48 | 2.44 | 0.58 | 97 | 1009.9 |
| 20260506023113 | 8 | 18 | 3.2 | 8.0 | 0.48 | 2.39 | 0.53 | 97 | 1010.1 |
| 20260506022613 | 8 | 38 | 4.8 | 9.7 | 0.46 | 2.34 | 0.48 | 97 | 1010.1 |
| 20260506021613 | 8 | 211 | 1.6 | 4.8 | 0.51 | 2.26 | 0.41 | 97 | 1009.9 |
| 20260506021113 | 8 | 54 | 3.2 | 8.0 | 0.48 | 2.21 | 0.36 | 97 | 1009.7 |
| 20260506020612 | 8 | 42 | 1.6 | 8.0 | 0.46 | 2.16 | 0.30 | 97 | 1009.7 |
| 20260506020113 | 9 | 40 | 3.2 | 9.7 | 0.46 | 2.11 | 0.25 | 97 | 1009.7 |
| 20260506015613 | 9 | 169 | 3.2 | 4.8 | 0.46 | 2.06 | 0.20 | 97 | 1009.4 |
| 20260506015113 | 9 | 209 | 0.0 | 1.6 | 0.46 | 2.01 | 0.15 | 97 | 1009.4 |
| 20260506014613 | 9 | 148 | 0.0 | 3.2 | 0.48 | 1.98 | 0.13 | 97 | 1009.4 |
| 20260506013113 | 9 | 17 | 1.6 | 4.8 | 0.53 | 1.91 | 0.05 | 97 | 1008.9 |
| 20260506012113 | 9 | 118 | 1.6 | 3.2 | 0.58 | 1.85 | 1.52 | 96 | 1009.0 |
| 20260506011613 | 8 | 186 | 0.0 | 4.8 | 0.56 | 1.78 | 1.45 | 96 | 1008.7 |
| 20260506011113 | 8 | 26 | 3.2 | 8.0 | 0.56 | 1.75 | 1.42 | 96 | 1008.9 |
| 20260506010613 | 9 | 25 | 3.2 | 8.0 | 0.53 | 1.73 | 1.40 | 96 | 1008.7 |
| 20260506010113 | 9 | 34 | 4.8 | 11.3 | 0.48 | 1.68 | 1.35 | 96 | 1008.8 |
| 20260506005613 | 9 | 287 | 1.6 | 12.9 | 0.43 | 1.63 | 1.30 | 96 | 1008.9 |
| 20260506004612 | 8 | 10 | 4.8 | 14.5 | 0.33 | 1.52 | 1.19 | 96 | 1008.9 |
| 20260506004113 | 9 | 23 | 8.0 | 14.5 | 0.28 | 1.47 | 1.14 | 96 | 1009.2 |
| 20260506003613 | 9 | 67 | 4.8 | 9.7 | 0.23 | 1.42 | 1.09 | 96 | 1009.0 |
| 20260506003113 | 9 | 9 | 8.0 | 14.5 | 0.20 | 1.37 | 1.04 | 96 | 1008.9 |
| 20260506002113 | 9 | 36 | 8.0 | 12.9 | 0.13 | 1.27 | 0.94 | 95 | 1008.9 |
| 20260506001613 | 9 | 12 | 4.8 | 9.7 | 0.10 | 1.22 | 0.89 | 95 | 1008.6 |
| 20260506001113 | 9 | 349 | 8.0 | 11.3 | 0.13 | 1.19 | 0.86 | 95 | 1008.7 |
| 20260506000613 | 9 | 33 | 4.8 | 8.0 | 0.15 | 1.19 | 0.86 | 95 | 1008.6 |
| 20260506000113 | 10 | 101 | 1.6 | 11.3 | 0.20 | 1.19 | 0.86 | 95 | 1008.6 |
| 20260505235613 | 10 | 31 | 9.7 | 11.3 | 0.20 | 1.19 | 0.86 | 95 | 1008.3 |
| 20260505234612 | 10 | 298 | 1.6 | 4.8 | 0.23 | 1.19 | 0.86 | 95 | 1008.3 |
| 20260505233612 | 10 | 190 | 0.0 | 0.0 | 0.25 | 1.19 | 0.86 | 94 | 1008.1 |
| 20260505233113 | 10 | 183 | 0.0 | 0.0 | 0.25 | 1.17 | 0.84 | 94 | 1008.1 |
| 20260505232613 | 10 | 170 | 0.0 | 3.2 | 0.28 | 1.17 | 0.84 | 94 | 1008.2 |
| 20260505232113 | 10 | 97 | 0.0 | 3.2 | 0.25 | 1.14 | 0.81 | 94 | 1008.2 |
| 20260505231613 | 10 | 256 | 1.6 | 3.2 | 0.23 | 1.12 | 0.79 | 94 | 1008.5 |
| 20260505231112 | 10 | 193 | 1.6 | 11.3 | 0.20 | 1.07 | 0.74 | 94 | 1008.5 |
| 20260505230613 | 10 | 39 | 12.9 | 19.3 | 0.18 | 1.04 | 0.71 | 93 | 1008.7 |
| 20260505225113 | 11 | 330 | 8.0 | 19.3 | 0.23 | 0.97 | 0.64 | 93 | 1008.7 |
| 20260505224612 | 11 | 27 | 6.4 | 14.5 | 0.36 | 0.97 | 0.64 | 93 | 1008.7 |
| 20260505224113 | 11 | 7 | 8.0 | 11.3 | 0.43 | 0.94 | 0.61 | 93 | 1008.5 |
| 20260505223613 | 11 | 5 | 4.8 | 4.8 | 0.53 | 0.94 | 0.61 | 92 | 1008.5 |
| 20260505223112 | 11 | 36 | 4.8 | 11.3 | 0.53 | 0.91 | 0.58 | 92 | 1008.9 |
| 20260505222613 | 12 | 2 | 4.8 | 14.5 | 0.53 | 0.89 | 0.56 | 92 | 1008.9 |
| 20260505222113 | 12 | 45 | 8.0 | 14.5 | 0.53 | 0.89 | 0.56 | 92 | 1008.8 |
| 20260505221613 | 12 | 65 | 3.2 | 11.3 | 0.56 | 0.89 | 0.56 | 92 | 1008.6 |
| 20260505221113 | 12 | 110 | 3.2 | 11.3 | 0.53 | 0.86 | 0.53 | 92 | 1008.7 |
| 20260505220613 | 13 | 243 | 0.0 | 3.2 | 0.53 | 0.86 | 0.53 | 92 | 1008.8 |
| 20260505220112 | 13 | 176 | 0.0 | 3.2 | 0.51 | 0.84 | 0.51 | 91 | 1008.8 |
| 20260505215613 | 13 | 194 | 0.0 | 3.2 | 0.18 | 0.79 | 0.46 | 91 | 1008.9 |
| 20260505215113 | 13 | 221 | 0.0 | 8.0 | 0.13 | 0.74 | 0.41 | 91 | 1008.6 |
| 20260505214613 | 13 | 230 | 1.6 | 8.0 | 0.00 | 0.61 | 0.28 | 91 | 1008.6 |
| 20260505214112 | 13 | 200 | 0.0 | 3.2 | 0.23 | 0.51 | 0.18 | 91 | 1008.4 |
| 20260505213613 | 13 | 195 | 1.6 | 9.7 | 0.15 | 0.41 | 0.08 | 90 | 1008.3 |
| 20260505213113 | 13 | 206 | 0.0 | 1.6 | 0.15 | 0.38 | 0.05 | 90 | 1008.0 |
| 20260505212612 | 13 | 188 | 3.2 | 4.8 | 0.15 | 0.36 | 0.03 | 90 | 1008.2 |
| 20260505212113 | 13 | 199 | 3.2 | 9.7 | 0.15 | 0.36 | 0.03 | 90 | 1008.0 |
| 20260505211613 | 13 | 232 | 0.0 | 1.6 | 0.13 | 0.33 | 0.00 | 90 | 1008.1 |
| 20260505211112 | 13 | 206 | 0.0 | 0.0 | 0.13 | 0.33 | 0.00 | 90 | 1008.2 |
| 20260505210613 | 13 | 196 | 1.6 | 3.2 | 0.13 | 0.33 | 0.00 | 90 | 1008.2 |
| 20260505210113 | 13 | 194 | 0.0 | 0.0 | 0.13 | 0.33 | 0.00 | 90 | 1008.0 |
| 20260505204114 | 13 | 166 | 0.0 | 1.6 | 0.18 | 0.30 | 0.25 | 90 | 1008.4 |
| 20260505203614 | 13 | 199 | 0.0 | 9.7 | 0.15 | 0.28 | 0.23 | 89 | 1008.5 |
| 20260505203114 | 13 | 215 | 4.8 | 9.7 | 0.13 | 0.25 | 0.20 | 89 | 1008.6 |
| 20260505202614 | 13 | 198 | 4.8 | 8.0 | 0.10 | 0.23 | 0.18 | 89 | 1008.6 |
| 20260505202114 | 13 | 202 | 1.6 | 3.2 | 0.08 | 0.20 | 0.15 | 89 | 1008.6 |
| 20260505201614 | 13 | 204 | 1.6 | 14.5 | 0.08 | 0.20 | 0.15 | 89 | 1008.6 |
| 20260505200614 | 13 | 201 | 0.0 | 4.8 | 0.08 | 0.20 | 0.15 | 88 | 1008.7 |
| 20260505195614 | 13 | 196 | 1.6 | 3.2 | 0.08 | 0.20 | 0.15 | 88 | 1008.8 |
| 20260505195114 | 14 | 192 | 1.6 | 4.8 | 0.08 | 0.20 | 0.15 | 88 | 1008.8 |
| 20260505194613 | 14 | 221 | 4.8 | 8.0 | 0.08 | 0.18 | 0.13 | 87 | 1008.7 |
| 20260505194114 | 14 | 219 | 1.6 | 4.8 | 0.03 | 0.13 | 0.08 | 87 | 1008.9 |
| 20260505193614 | 13 | 197 | 0.0 | 0.0 | 0.05 | 0.13 | 0.08 | 87 | 1008.9 |
| 20260505193114 | 13 | 203 | 0.0 | 3.2 | 0.05 | 0.13 | 0.08 | 87 | 1008.9 |
| 20260505192613 | 13 | 229 | 0.0 | 4.8 | 0.05 | 0.13 | 0.08 | 87 | 1008.7 |
| 20260505192114 | 13 | 205 | 1.6 | 3.2 | 0.05 | 0.13 | 0.08 | 87 | 1008.9 |
| 20260505191614 | 13 | 199 | 0.0 | 3.2 | 0.05 | 0.13 | 0.08 | 87 | 1008.9 |
| 20260505191114 | 14 | 191 | 1.6 | 4.8 | 0.05 | 0.13 | 0.08 | 87 | 1008.8 |
| 20260505190613 | 14 | 190 | 1.6 | 3.2 | 0.05 | 0.13 | 0.08 | 87 | 1008.9 |
| 20260505185614 | 14 | 277 | 4.8 | 8.0 | 0.05 | 0.13 | 0.08 | 86 | 1008.8 |